Regional Weather Roundup
Issued by NWS

Home | Current Version | Previous Version | Text Only | Print | Product List | Glossary On
Versions: 1 2 3 4 5 6 7 8 9 10 11 12 13 14 15 16 17 18 19 20 21 22 23 24 25 26 27 28 29 30 31 32 33 34 35 36 37 38 39 40 41 42 43 44 45 46 47 48 49 50
000
ASUS45 KPSR 240210
RWRAZ

ARIZONA REGIONAL HOURLY WEATHER ROUNDUP
NATIONAL WEATHER SERVICE PHOENIX AZ
700 PM MST WED JUL 23 2014

NOTE: FAIR INDICATES FEW OR NO CLOUDS BELOW 12,000 FEET WITH NO
SIGNIFICANT WEATHER AND/OR OBSTRUCTIONS TO VISIBILITY.

AZZ001>003-036-240300-
NORTHWEST ARIZONA

CITY           SKY/WX    TMP DP  RH WIND       PRES   REMARKS
BULLHEAD CITY  CLEAR    113  36   7 S10       29.72S HX 106
KINGMAN        PTCLDY    99  36  11 SW14      29.99F
$$

AZZ004>008-015-016-018-240300-
NORTH CENTRAL ARIZONA

CITY           SKY/WX    TMP DP  RH WIND       PRES   REMARKS
GRAND CANYON   MOCLDY    85  38  18 W6        30.29R
WILLIAMS       MOCLDY    82  41  23 S8        30.36S
PRESCOTT       MOCLDY    91  46  21 S10       30.15R
FLAGSTAFF      MOCLDY    78  44  29 S7        30.35R
PAYSON         MOCLDY    86  50  28 CALM      30.20R
PAGE           PTCLDY    99  43  14 E15       30.03S
$$

AZZ009>014-017-240300-
NORTHEAST ARIZONA

CITY           SKY/WX    TMP DP  RH WIND       PRES   REMARKS
WINSLOW        LGT RAIN  80  55  42 S21G28    30.18R
SAINT JOHNS    CLOUDY    75  62  64 S5        30.26F
WINDOW ROCK    CLOUDY    76  50  40 S10       30.35F
SHOW LOW       LGT RAIN  66  55  68 S9        30.36F
$$

AZZ023-240300-
GREATER PHOENIX AREA

CITY           SKY/WX    TMP DP  RH WIND       PRES   REMARKS
PHOENIX        MOCLDY   110  51  14 VRB7      29.76S HX 107
BUCKEYE          N/A    106  54  17 SE6       29.77S HX 104
GLENDALE       MOCLDY   109  52  15 VRB3      29.78R HX 107
LUKE AFB       NOT AVBL
DEER VALLEY    PTCLDY   107  50  15 SW3       29.79S HX 104
SCOTTSDALE     MOCLDY   109  52  15 CALM      29.82R HX 107
MESA-FALCON    MOCLDY   109  54  16 E14       29.79S HX 108
MESA-GATEWAY   MOCLDY   104  55  20 S6        29.83R HX 103
CHANDLER       MOCLDY   109  54  16 W7          N/A  HX 108
$$

AZZ027-028-240300-
SOUTHWEST MARICOPA COUNTY AND PINAL COUNTY

CITY           SKY/WX    TMP DP  RH WIND       PRES   REMARKS
CASA GRANDE    MOCLDY   106  54  17 CALM      29.83R HX 104
GILA BEND      MOCLDY   111  45  10 NW3       29.76S HX 106
$$

AZZ503-504-507>509-240300-
SOUTHEAST ARIZONA

CITY           SKY/WX    TMP DP  RH WIND       PRES   REMARKS
TUCSON         CLOUDY    98  53  22 N8        29.95R THUNDER
DAVIS-MONTHAN  MOCLDY    96  55  24 E10G22    29.92S
RYAN FIELD     TSTM      79  64  61 N21G32    29.91S
NOGALES        CLOUDY    86  58  38 NW9       30.06R
SIERRA VISTA   MOCLDY    88  52  29 E8        30.15R
DOUGLAS        PTCLDY    89  52  28 E7        30.10R
SAFFORD        CLOUDY    89  60  37 CALM      30.04S
$$

AZZ020-021-025-026-031-240300-
SOUTHWEST ARIZONA

CITY           SKY/WX    TMP DP  RH WIND       PRES   REMARKS
YUMA           MOCLDY   114  41   8 W9        29.70S HX 108
$$

CAZ031-033-041-043-047-048-061-240300-
SOUTHERN CALIFORNIA

CITY           SKY/WX    TMP DP  RH WIND       PRES   REMARKS
DOWNTOWN L.A.  SUNNY     79  59  50 CALM      29.88S
L.A. AIRPORT   MOSUNNY   73  60  63 W18       29.88F
SAN DIEGO      PTCLDY    76  63  64 NW9       29.90F
BURBANK        SUNNY     87  53  31 SE13      29.89S
ONTARIO        MOSUNNY   90  46  21 W14       29.89S
RIVERSIDE      SUNNY     90  47  22 W10       29.89R
PALM SPRINGS   CLEAR    110  38   8 NW18G26   29.74S HX 103
EL CENTRO NAS  PTCLDY   113  37   7 E5        29.68S HX 106
IMPERIAL       MOCLDY   113  35   7 CALM      29.67F HX 106
BLYTHE         PTCLDY   113  39   8 SE6       29.70F HX 106
NEEDLES        CLEAR    113  25   5 W13       29.75S HX 104
$$

NVZ020-UTZ003-240300-
SOUTHERN NEVADA-UTAH

CITY           SKY/WX    TMP DP  RH WIND       PRES   REMARKS
LAS VEGAS      PTCLDY   107  23   5 SW16      29.80S
SALT LAKE CITY MOCLDY    95  39  14 S20G28    29.93S
$$

NMZ009-TXZ055-240300-
NEW MEXICO-WEST TEXAS

CITY           SKY/WX    TMP DP  RH WIND       PRES   REMARKS
ALBUQUERQUE    MOCLDY    84  54  35 N7        30.27S
EL PASO        PTCLDY    91  44  19 E12       30.12S
$$


........................KEY........................
SKY/WX - SKY CONDITION/WEATHER
TMP    - TEMPERATURE IN FAHRENHEIT
DP     - DEW POINT IN FAHRENHEIT
RH     - RELATIVE HUMIDITY IN PERCENT
WIND   - DIRECTION AND SPEED IN MILES PER HOUR (MPH)
VRB    - VARIABLE WIND DIRECTION
PRES   - MEAN SEA LEVEL PRESSURE IN INCHES OF MERCURY
         F - FALLING PRESSURE   R - RISING PRESSURE
         S - STEADY PRESSURE
VSB    - VISIBILITY IN MILES
HX     - HEAT INDEX IN FAHRENHEIT
WCI    - WIND CHILL INDEX IN FAHRENHEIT
TC     - TEMPERATURE IN CELSIUS WHICH IS ALSO KNOWN AS
         TEMPERATURE IN CENTIGRADE
AFB    - AIR FORCE BASE
         LUKE AFB IS LUKE AIR FORCE BASE
         DAVIS-MONTHAN IS DAVIS-MONTHAN AIR FORCE BASE
NAS    - NAVAL AIR STATION
         EL CENTRO NAS IS EL CENTRO NAVAL AIR STATION
N/A    - NOT AVAILABLE



USA.gov is the U.S. government's official web portal to all federal, state and local government web resources and services.